Weather History for KDEN - May, 2007

Change the Weather History Date:

Friday, May 25, 2007

  Actual Average Record
Temperature  
Mean Temperature 61 °F 60 °F  
Max Temperature 75 °F 75 °F 91 °F (1964)
Min Temperature 46 °F 46 °F 31 °F (1950)
Degree Days  
Heating Degree Days 4 6  
Month to date heating degree days 193 235  
Since 1 July heating degree days 6133 5966  
Cooling Degree Days 0 1  
Month to date cooling degree days 9 10  
Year to date cooling degree days 14 11  
Growing Degree Days 10 (Base 50)    
Moisture  
Dew Point 39 °F    
Average Humidity 49    
Maximum Humidity 76    
Minimum Humidity 22    
Precipitation  
Precipitation 0.00 in 0.06 in 1.31 in (1950)
Month to date precipitation 1.26 1.67  
Year to date precipitation 5.39 5.08  
Snow  
Snow 0.00 in - - ()
Month to date snowfall 0  
Since 1 July snowfall 72.6  
Snow Depth 0.00 in    
Sea Level Pressure  
Sea Level Pressure 29.91 in    
Wind  
Wind Speed 12 mph (SSE)    
Max Wind Speed 24 mph    
Max Gust Speed 31 mph    
Visibility 10 miles    
Events      
T = Trace of Precipitation, MM = Missing Value Source: NWS Daily Summary

Daily Weather History Graph

Daily Weather History Graph

Search for Another Location

Airport or City:

Trip Planner

Search our weather history database for the weather conditions in past years. The results will help you decide how hot, cold, wet, or windy it might be!

Date:

Astronomy

May. 25, 2007 Rise Set
Actual Time 5:36 AM MDT 8:15 PM MDT
Civil Twilight 5:04 AM MDT 8:46 PM MDT
Nautical Twilight 4:25 AM MDT 9:26 PM MDT
Astronomical Twilight 3:41 AM MDT 10:10 PM MDT
Moon 2:29 PM MDT (5/25) 2:21 AM MDT (5/25)
Length of Visible Light 15h 42m
Length of Day
14h 39m
Waxing Gibbous, 68% of the Moon is Illuminated
May 25
Waxing Gibbous
May 31
Full
Jun 8
Last Quarter
Jun 14
New
Jun 22
First Quarter

Hourly Weather History & Observations

Time (MDT) Temp. Dew Point Humidity Pressure Visibility Wind Dir Wind Speed Gust Speed Precip Events Conditions
12:53 AM 50.0 °F 39.0 °F 66% 30.00 in 10.0 mi South 18.4 mph 24.2 mph N/A   Mostly Cloudy
1:53 AM 50.0 °F 39.0 °F 66% 29.99 in 10.0 mi South 21.9 mph 28.8 mph N/A   Scattered Clouds
2:53 AM 48.9 °F 39.0 °F 69% 29.98 in 10.0 mi South 20.7 mph 29.9 mph N/A   Scattered Clouds
3:53 AM 48.0 °F 39.0 °F 71% 29.96 in 10.0 mi South 18.4 mph - N/A   Scattered Clouds
4:53 AM 48.0 °F 39.0 °F 71% 29.95 in 10.0 mi SSW 16.1 mph 26.5 mph N/A   Scattered Clouds
5:53 AM 46.9 °F 39.0 °F 74% 29.97 in 10.0 mi SSW 13.8 mph - N/A   Scattered Clouds
6:53 AM 48.0 °F 39.9 °F 74% 29.99 in 10.0 mi WSW 11.5 mph - N/A   Scattered Clouds
7:53 AM 53.1 °F 41.0 °F 64% 29.98 in 10.0 mi WSW 15.0 mph - N/A   Scattered Clouds
8:53 AM 57.0 °F 42.1 °F 57% 29.98 in 10.0 mi SW 9.2 mph - N/A   Scattered Clouds
9:53 AM 63.0 °F 42.1 °F 46% 29.95 in 10.0 mi SW 6.9 mph - N/A   Scattered Clouds
10:53 AM 66.9 °F 35.1 °F 31% 29.93 in 10.0 mi SSE 8.1 mph - N/A   Partly Cloudy
11:53 AM 69.1 °F 30.9 °F 24% 29.91 in 10.0 mi East 8.1 mph - N/A   Partly Cloudy
12:53 PM 70.0 °F 30.0 °F 23% 29.88 in 10.0 mi Variable 5.8 mph - N/A   Partly Cloudy
1:53 PM 71.1 °F 32.0 °F 24% 29.84 in 10.0 mi ESE 6.9 mph 16.1 mph N/A   Partly Cloudy
2:53 PM 73.0 °F 34.0 °F 24% 29.82 in 10.0 mi ESE 9.2 mph 17.3 mph N/A   Scattered Clouds
3:53 PM 73.9 °F 32.0 °F 21% 29.80 in 10.0 mi Variable 5.8 mph - N/A   Scattered Clouds
4:53 PM 75.0 °F 35.1 °F 23% 29.78 in 10.0 mi East 5.8 mph - N/A   Scattered Clouds
5:53 PM 73.9 °F 39.9 °F 29% 29.78 in 10.0 mi East 8.1 mph - N/A   Scattered Clouds
6:53 PM 71.1 °F 43.0 °F 36% 29.80 in 10.0 mi SSE 10.4 mph - N/A   Scattered Clouds
7:53 PM 63.0 °F 46.0 °F 54% 29.82 in 10.0 mi South 9.2 mph - N/A   Scattered Clouds
8:53 PM 62.1 °F 42.1 °F 48% 29.82 in 10.0 mi South 15.0 mph - N/A   Scattered Clouds
9:53 PM 61.0 °F 41.0 °F 48% 29.84 in 10.0 mi SSW 13.8 mph 20.7 mph N/A   Scattered Clouds
10:53 PM 55.9 °F 42.1 °F 60% 29.90 in 10.0 mi NNE 20.7 mph 29.9 mph N/A   Scattered Clouds
10:59 PM 55.4 °F 41.0 °F 58% 30.07 in 10.0 mi NNE 21.9 mph - N/A   Scattered Clouds
11:53 PM 52.0 °F 39.9 °F 63% 29.94 in 10.0 mi NE 10.4 mph - N/A   Scattered Clouds